Tracking 20040 objects as of 18-Nov-2019
Live streaming from Space Station
objects crossing your sky now

SL-14 DEB

Track SL-14 DEB now!
10-day predictions


NORAD ID: 26017
Int'l Code: 1991-068AC
Perigee: 1,451.6 km
Apogee: 1,548.3 km
Inclination: 82.7 °
Period: 115.8 minutes
Semi major axis: 7870 km
RCS: 0.1062 m2 (medium)
Launch date: September 28, 1991
Source: Commonwealth of Independent States (former USSR) (CIS)
Launch site: PLESETSK MISSILE AND SPACE COMPLEX (PKMTR)

Note: This is SATELLITE DEBRIS
aabbcc
Your satellite tracking list
Your tracking list is empty




NASA's NSSDC Master Catalog

Two Line Element Set (TLE):
1 26017U 91068AC  19321.53587277 +.00000005 +00000-0 -39612-4 0  9991
2 26017 082.6892 322.3493 0061408 088.2991 034.9575 12.43265078281197
Source of the keplerian elements: AFSPC